Weerstation Grootegast  Weerstation Grootegast


15 daagse weersverwachting Lausanne (CH)

  • Overzicht
  • Per uur
  • 15 dagen
  • Extra
  • Vergelijk
  • Kaarten
  • Dagkaart
  • Meer »
  • Info
  • Statistieken
  • Directe link
    Temp 6h Neerslag Wind  
 07:20     19:34    Daglengte: 12:14 Vandaag
08:00
18°
 
2
14:00
21°
 
1
20:00
21°
2.4 mm
1
warningclass
 07:21     19:32    Daglengte: 12:11 Morgen
02:00
19°
4.5 mm
2
warningclass
08:00
18°
4.2 mm
1
warningclass
14:00
20°
3.0 mm
1
20:00
20°
1.6 mm
1
 07:22     19:30    Daglengte: 12:08 Dinsdag 22 Sep
02:00
18°
4.8 mm
1
08:00
18°
5.1 mm
2
14:00
19°
0.8 mm
2
warningclass
20:00
18°
5.0 mm
3
 07:24     19:28    Daglengte: 12:04 Woensdag 23 Sep
02:00
17°
37.3 mm
3
warningclass
Locatie info
Region: Lausanne
Latitude: 46.5196°N
Longitude: 6.6322°E
453 masl
Postcode: 1003
Temp/Neerslag /Baro Onweer/Dauwpunt
    Temp Baro 1h Neerslag Dauwpunt Wind UV Bewolking  
 07:20     19:34    Daglengte: 12:14 Vandaag
08:00
18°
1014.1 hPa
24%
15.6°
2
Windvlaag: 0.2 m/s
36%
09:00
19°
1014.3 hPa   15.8°
2
Windvlaag: 0.6 m/s
32%
10:00
19°
1014.5 hPa   16.0°
1
Windvlaag: 1.1 m/s
28%
11:00
20°
1014.5 hPa   15.9°
1
Windvlaag: 1 m/s
57%
12:00
21°
1014.4 hPa   15.8°
2
Windvlaag: 1.2 m/s
49%
13:00
21°
1014.3 hPa
11%
15.8°
2
Windvlaag: 1.5 m/s
52%
14:00
21°
1013.9 hPa
20%
15.6°
1
Windvlaag: 1 m/s
39%
15:00
21°
1013.6 hPa
38%
15.3°
1
Windvlaag: 0.9 m/s
48%
16:00
22°
1013.4 hPa
47%
14.8°
1
Windvlaag: 1.3 m/s
51%
17:00
22°
1013.1 hPa
77%
14.6°
2
Windvlaag: 1.4 m/s
74%
18:00
21°
1013.3 hPa 0.5 mm
80%
14.8°
1
Windvlaag: 1.7 m/s
74% warningclass
19:00
21°
1013.7 hPa 1.0 mm
77%
15.3°
1
Windvlaag: 1 m/s
81% warningclass
20:00
21°
1014.0 hPa 0.8 mm
79%
15.3°
1
Windvlaag: 0.7 m/s
79% warningclass
21:00
20°
1014.5 hPa 1.3 mm
77%
15.6°
1
Windvlaag: 0.6 m/s
74% warningclass
22:00
19°
1014.8 hPa 0.8 mm
69%
15.7°
2
Windvlaag: 0.2 m/s
70% warningclass
23:00
19°
1014.9 hPa 0.8 mm
68%
16.1°
2
Windvlaag: 0.1 m/s
73%
 07:21     19:32    Daglengte: 12:11 Morgen
00:00
19°
1015.1 hPa
34%
16.7°
1
Windvlaag: 0.2 m/s
72%
01:00
19°
1015.0 hPa 0.7 mm
70%
16.7°
1
Windvlaag: 1 m/s
71%
02:00
19°
1015.1 hPa 0.9 mm
68%
16.3°
2
Windvlaag: 1.3 m/s
73% warningclass
03:00
19°
1015.0 hPa 0.7 mm
73%
16.1°
2
Windvlaag: 1.2 m/s
62%
04:00
19°
1014.9 hPa
68%
15.2°
2
Windvlaag: 1.1 m/s
65%
05:00
18°
1014.8 hPa 0.9 mm
64%
15.3°
1
Windvlaag: 1 m/s
74%
06:00
18°
1014.8 hPa 1.0 mm
63%
15.3°
1
Windvlaag: 0.4 m/s
72% warningclass
07:00
18°
1015.0 hPa 0.9 mm
70%
15.2°
1
Windvlaag: 0.4 m/s
66% warningclass
08:00
18°
1015.4 hPa 0.9 mm
70%
15.2°
1
Windvlaag: 0.5 m/s
54% warningclass
09:00
18°
1015.5 hPa 0.8 mm
72%
15.5°
1
Windvlaag: 0.7 m/s
63%
10:00
19°
1015.7 hPa 0.9 mm
79%
15.6°
1
Windvlaag: 0.6 m/s
64%
11:00
19°
1015.8 hPa 0.8 mm
81%
15.9°
1
Windvlaag: 0.5 m/s
56% warningclass
12:00
19°
1015.7 hPa 0.6 mm
82%
16.0°
1
Windvlaag: 0.9 m/s
48%
13:00
20°
1015.4 hPa
46%
15.4°
1
Windvlaag: 1.3 m/s
42%
14:00
20°
1015.0 hPa
39%
14.9°
1
Windvlaag: 1.2 m/s
35%
15:00
21°
1014.6 hPa
40%
14.8°
1
Windvlaag: 1.2 m/s
41%
16:00
21°
1014.3 hPa
41%
15.2°
1
Windvlaag: 1 m/s
43%
17:00
21°
1014.0 hPa
42%
15.6°
1
Windvlaag: 0.9 m/s
50%
18:00
21°
1014.1 hPa
40%
15.9°
2
Windvlaag: 1 m/s
48%
19:00
21°
1014.4 hPa 0.8 mm
74%
15.7°
2
Windvlaag: 0.9 m/s
54%
20:00
20°
1014.6 hPa 0.8 mm
76%
15.4°
1
Windvlaag: 1.2 m/s
47%
21:00
20°
1014.8 hPa
70%
15.7°
1
Windvlaag: 1.4 m/s
42%
22:00
20°
1014.8 hPa 0.9 mm
68%
15.4°
1
Windvlaag: 1.4 m/s
51%
23:00
19°
1015.0 hPa 0.8 mm
70%
15.4°
1
Windvlaag: 1.5 m/s
45%
 07:22     19:30    Daglengte: 12:08 Dinsdag 22 Sep
00:00
19°
1014.9 hPa 1.0 mm
65%
15.1°
1
Windvlaag: 1.4 m/s
33% warningclass
01:00
19°
1014.8 hPa 0.9 mm
64%
15.2°
1
Windvlaag: 0.9 m/s
30% warningclass
02:00
18°
1014.6 hPa 1.1 mm
61%
15.2°
1
Windvlaag: 0.8 m/s
45%
03:00
18°
1014.5 hPa 1.0 mm
63%
15.1°
1
Windvlaag: 1 m/s
47%
04:00
18°
1014.3 hPa 0.7 mm
66%
14.9°
2
Windvlaag: 1.2 m/s
48%
05:00
18°
1014.1 hPa 0.8 mm
86%
14.5°
2
Windvlaag: 1 m/s
65%
06:00
18°
1013.9 hPa 1.1 mm
90%
14.4°
2
Windvlaag: 0.9 m/s
65% warningclass
07:00
18°
1013.8 hPa 0.8 mm
98%
14.3°
2
Windvlaag: 0.8 m/s
56% warningclass
08:00
18°
1014.0 hPa 0.7 mm
94%
14.4°
2
Windvlaag: 0.7 m/s
57%
09:00
18°
1013.9 hPa
94%
14.6°
1
Windvlaag: 0.7 m/s
60%
10:00
18°
1013.9 hPa
93%
14.8°
1
Windvlaag: 0.8 m/s
58%
11:00
19°
1013.7 hPa
94%
15.0°
2
Windvlaag: 1.5 m/s
46%
12:00
19°
1013.5 hPa
96%
14.8°
2
Windvlaag: 1.8 m/s
66%
13:00
19°
1012.9 hPa 0.8 mm
55%
14.4°
2
Windvlaag: 1.7 m/s
78%
14:00
19°
1012.5 hPa
55%
14.6°
2
Windvlaag: 1.3 m/s
70%
15:00
19°
1012.0 hPa
58%
14.5°
2
Windvlaag: 1.4 m/s
68%
16:00
19°
1011.5 hPa
59%
14.6°
2
Windvlaag: 1.5 m/s
72%
17:00
20°
1011.1 hPa
98%
14.7°
2
Windvlaag: 1.4 m/s
77%
18:00
20°
1010.8 hPa 0.9 mm
100%
15.1°
2
Windvlaag: 1.5 m/s
82% warningclass
19:00
19°
1010.8 hPa 1.3 mm
96%
14.7°
2
Windvlaag: 1.1 m/s
89%
20:00
18°
1011.0 hPa 2.7 mm
90%
14.3°
3
Windvlaag: 1 m/s
84%
21:00
18°
1011.1 hPa 4.8 mm
91%
14.2°
3
Windvlaag: 1.6 m/s
85%
22:00
18°
1011.1 hPa 5.2 mm
89%
14.3°
2
Windvlaag: 0.8 m/s
72%
23:00
18°
1011.0 hPa 5.8 mm
85%
14.5°
2
Windvlaag: 0.9 m/s
70% warningclass
 07:24     19:28    Daglengte: 12:04 Woensdag 23 Sep
00:00
18°
1011.0 hPa 7.2 mm
83%
14.5°
3
Windvlaag: 2.7 m/s
81%
01:00
18°
1010.9 hPa 6.7 mm
83%
14.7°
2
Windvlaag: 3.2 m/s
67%
02:00
17°
1010.8 hPa 7.7 mm
81%
14.7°
3
Windvlaag: 1.6 m/s
81% warningclass
03:00
17°
1010.5 hPa 7.6 mm
86%
14.3°
3
Windvlaag: 11.9 m/s
86% warningclass
04:00
17°
1010.2 hPa 9.2 mm
94%
14.3°
3
Windvlaag: 10.5 m/s
88% warningclass
05:00
17°
1010.1 hPa 9.5 mm
100%
14.3°
3
Windvlaag: 10.9 m/s
90% warningclass
06:00
17°
1009.9 hPa 11.1 mm
98%
14.2°
3
Windvlaag: 9.9 m/s
89% warningclass
07:00
17°
1009.8 hPa 11.3 mm
100%
14.0°
3
Windvlaag: 11.1 m/s
87% warningclass
Temp/Neerslag /Baro Onweer/Dauwpunt
    Temp Baro Neerslag Dauwpunt Wind Bewolking  
 07:20     19:34    Daglengte: 12:14 Vandaag
08:00
18°
1014.1 hPa   15.6°
2
36%
11:00
20°
1014.5 hPa   15.9°
1
57%
14:00
21°
1013.9 hPa   15.6°
1
39%
17:00
22°
1013.1 hPa   14.6°
2
74%
20:00
21°
1014.0 hPa 2.4 mm 15.3°
1
79% warningclass
23:00
19°
1014.9 hPa 2.9 mm 16.1°
2
73%
 07:21     19:32    Daglengte: 12:11 Morgen
02:00
19°
1015.1 hPa 1.6 mm 16.3°
2
73% warningclass
05:00
18°
1014.8 hPa 1.5 mm 15.3°
1
74%
08:00
18°
1015.4 hPa 2.7 mm 15.2°
1
54% warningclass
11:00
19°
1015.8 hPa 2.4 mm 15.9°
1
56% warningclass
14:00
20°
1015.0 hPa 0.6 mm 14.9°
1
35%
17:00
21°
1014.0 hPa   15.6°
1
50%
20:00
20°
1014.6 hPa 1.6 mm 15.4°
1
47%
23:00
19°
1015.0 hPa 1.7 mm 15.4°
1
45%
 07:22     19:30    Daglengte: 12:08 Dinsdag 22 Sep
02:00
18°
1014.6 hPa 3.1 mm 15.2°
1
45%
05:00
18°
1014.1 hPa 2.4 mm 14.5°
2
65%
08:00
18°
1014.0 hPa 2.7 mm 14.4°
2
57%
11:00
19°
1013.7 hPa   15.0°
2
46%
14:00
19°
1012.5 hPa 0.8 mm 14.6°
2
70% warningclass
17:00
20°
1011.1 hPa   14.7°
2
77%
20:00
18°
1011.0 hPa 5.0 mm 14.3°
3
84%
23:00
18°
1011.0 hPa 15.7 mm 14.5°
2
70% warningclass
 07:24     19:28    Daglengte: 12:04 Woensdag 23 Sep
02:00
17°
1010.8 hPa 21.6 mm 14.7°
3
81% warningclass
05:00
17°
1010.1 hPa 26.4 mm 14.3°
3
90% warningclass
08:00
17°
1009.8 hPa 33.5 mm 13.9°
3
86% warningclass
11:00
17°
1009.4 hPa 28.5 mm 13.7°
2
79%
14:00
18°
1009.0 hPa 28.7 mm 13.7°
2
77%
17:00
18°
1008.0 hPa 28.9 mm 13.5°
2
45%
20:00
19°
1007.2 hPa 29.0 mm 12.7°
1
13%
23:00
18°
1007.6 hPa 29.8 mm 13.3°
2
44%
 07:25     19:26    Daglengte: 12:01 Donderdag 24 Sep
02:00
17°
1007.8 hPa 31.3 mm 13.6°
4
75%
05:00
16°
1008.8 hPa 34.0 mm 12.6°
5
83%
08:00
15°
1009.8 hPa 37.0 mm 11.8°
7
92%
11:00
15°
1009.7 hPa 40.9 mm 10.4°
6
58%
14:00
15°
1009.6 hPa 42.1 mm 8.7°
5
24%
17:00
16°
1008.2 hPa 44.9 mm 8.7°
5
48%
20:00
16°
1007.0 hPa 52.5 mm 8.6°
5
72%
23:00
15°
1007.4 hPa 53.9 mm 8.7°
6
63%
 07:26     19:24    Daglengte: 11:58 Vrijdag 25 Sep
02:00
13°
1007.7 hPa 56.5 mm 8.7°
6
54%
05:00
12°
1007.7 hPa 60.5 mm 7.9°
6
59%
08:00
10°
1007.8 hPa 64.1 mm 7.1°
6
64%
11:00
10°
1008.5 hPa 66.6 mm 5.8°
6
53%
14:00
11°
1009.2 hPa 71.4 mm 4.1°
6
42%
17:00
10°
Voelt als: 7.3°
1010.3 hPa 73.8 mm 5.0°
5
65%
20:00
Voelt als: 6.2°
1011.5 hPa 75.7 mm 5.5°
3
89%
23:00
Voelt als: 6.0°
1011.9 hPa 77.6 mm 5.5°
3
90%
 07:28     19:22    Daglengte: 11:54 Zaterdag 26 Sep
02:00
Voelt als: 5.8°
1012.1 hPa 79.9 mm 5.3°
3
91%
05:00
Voelt als: 5.5°
1012.1 hPa 83.6 mm 4.8°
3
74%
08:00
Voelt als: 5.3°
1012.2 hPa 87.6 mm 4.5°
3
57%
11:00
Voelt als: 6.2°
1011.8 hPa 91.5 mm 4.6°
3
72%
14:00
Voelt als: 7.2°
1011.3 hPa 97.3 mm 4.4°
4
88%
17:00
Voelt als: 7.4°
1012.4 hPa 102.4 mm 4.5°
3
85%
20:00
Voelt als: 7.8°
1013.6 hPa 105.3 mm 4.5°
2
82%
23:00
Voelt als: 7.7°
1014.6 hPa 107.1 mm 5.4°
2
82%
 07:29     19:20    Daglengte: 11:51 Zondag 27 Sep
02:00
Voelt als: 7.5°
1015.4 hPa 109.9 mm 6.3°
3
82%
05:00
Voelt als: 7.0°
1016.1 hPa   6.0°
3
58%
08:00
Voelt als: 6.4°
1016.8 hPa 235.5 mm 5.7°
3
35%
14:00
11°
1017.3 hPa 251.3 mm 3.4°
2
43%
20:00
13°
1016.6 hPa 260.3 mm -0.7°
1
59%
 07:30     19:18    Daglengte: 11:48 Maandag 28 Sep
02:00
12°
1017.4 hPa 264.2 mm 4.5°
3
90%
08:00
12°
1018.0 hPa 266.0 mm 4.9°
2
72%
14:00
14°
1018.0 hPa 266.6 mm 8.0°
5
90%
20:00
15°
1017.7 hPa 267.5 mm 10.5°
3
44%
 07:32     19:16    Daglengte: 11:44 Dinsdag 29 Sep
02:00
13°
1019.2 hPa 268.1 mm 10.7°
2
27%
08:00
13°
1019.5 hPa 268.3 mm 9.6°
3
42%
14:00
12°
1022.9 hPa 270.3 mm 8.3°
3
1%
20:00
10°
Voelt als: 9.8°
1023.1 hPa 274.2 mm 7.6°
1
1%
 07:33     19:14    Daglengte: 11:41 Woensdag 30 Sep
02:00
Voelt als: 5.6°
1023.1 hPa 0.5 mm 4.6°
1
29%
08:00
Voelt als: 5.0°
1022.5 hPa 0.4 mm 3.9°
1
31%
14:00
15°
1020.1 hPa 0.4 mm 8.5°
1
30%
20:00
10°
Voelt als: 9.6°
1020.5 hPa 0.7 mm 7.9°
1
37%
 07:34     19:12    Daglengte: 11:38 Donderdag 01 Okt
02:00
Voelt als: 6.6°
1020.6 hPa 0.6 mm 5.5°
1
35%
08:00
Voelt als: 6.3°
1020.0 hPa 0.6 mm 4.4°
1
31%
14:00
15°
1018.0 hPa 0.8 mm 8.1°
2
31%
20:00
Voelt als: 8.0°
1019.0 hPa 0.7 mm 6.9°
2
43%
 07:36     19:10    Daglengte: 11:34 Vrijdag 02 Okt
02:00
Voelt als: 5.8°
1019.7 hPa   4.4°
1
30%
08:00
Voelt als: 5.1°
1019.3 hPa   3.3°
2
21%
14:00
17°
1017.1 hPa   8.4°
1
24%
20:00
10°
1017.9 hPa 0.2 mm 8.3°
1
35%
 07:37     19:08    Daglengte: 11:31 Zaterdag 03 Okt
02:00
Voelt als: 7.8°
1018.7 hPa 0.2 mm 6.3°
2
29%
08:00
Voelt als: 7.8°
1018.6 hPa 0.3 mm 5.6°
1
31%
14:00
18°
1017.1 hPa 0.1 mm 9.9°
1
28%
20:00
11°
1017.8 hPa 0.2 mm 9.2°
1
32%
 07:38     19:06    Daglengte: 11:28 Zondag 04 Okt
02:00
10°
Voelt als: 9.3°
1018.6 hPa 0.8 mm 7.6°
2
31%
08:00
Voelt als: 8.7°
1018.6 hPa 0.9 mm 6.7°
1
33%
14:00
18°
1017.4 hPa 0.7 mm 11.1°
1
32%
20:00
12°
1017.6 hPa 0.6 mm 9.8°
0
39%
 07:40     19:04    Daglengte: 11:24 Maandag 05 Okt
02:00
10°
Voelt als: 9.3°
1018.4 hPa 0.4 mm 7.8°
2
31%
  CAPE Lifted Index Hail Supercell Tornado SRH 3km CL BTM PRES CL TOP PRES Swiss DWD icon SMHI TS
 07:20     19:34    Daglengte: 12:14 Vandaag
08:00 0 J/kg -0.5 K 0 % 0 % 0 % 0 m²/s² 0 0 0.13 3
09:00 9 J/kg -0.6 K 0 % 0 % 0 % 0 m²/s² 0 0 0.21 3
10:00 36 J/kg -0.7 K 0 % 0 % 0 % 0 m²/s² 0 0 -0.22 2
11:00 172 J/kg -0.7 K 0 % 0 % 0 % 0 m²/s² 0 0 -0.16 3
12:00 275 J/kg -1.2 K 0 % 0 % 0 % 0 m²/s² 0 0 -0.45 3
13:00 407 J/kg -2.0 K 0 % 0 % 0 % 0 m²/s² 0 0 -1.28 3
14:00 450 J/kg -2.2 K 0 % 0 % 0 % 0 m²/s² 0 0 -1.39 3
15:00 491 J/kg -1.8 K 0 % 0 % 0 % 0 m²/s² 0 0 -0.48 3
16:00 813 J/kg -3.1 K 0 % 0 % 0 % 0 m²/s² 0 0 -2.11 80
17:00 932 J/kg -3.4 K 0 % 0 % 0 % 0 m²/s² 0 0 -2.14 80
18:00 1209 J/kg -4.7 K 0 % 0 % 0 % 0 m²/s² 0 0 -4.07 80
19:00 549 J/kg -2.5 K 0 % 0 % 0 % 0 m²/s² 0 0 -1 95
20:00 489 J/kg -2.8 K 0 % 0 % 0 % 0 m²/s² 0 0 -2.41 80
21:00 278 J/kg -1.5 K 0 % 0 % 0 % 0 m²/s² 0 0 -1.23 95
22:00 200 J/kg -1.3 K 0 % 0 % 0 % 0 m²/s² 0 0 -0.64 95
23:00 150 J/kg -1.4 K 0 % 0 % 0 % 0 m²/s² 0 0 -0.35 80
 07:21     19:32    Daglengte: 12:11 Morgen
00:00 177 J/kg -1.3 K 0 % 0 % 0 % 0 m²/s² 0 0 -0.73 3
01:00 130 J/kg -1.1 K 0 % 0 % 0 % 0 m²/s² 0 0 -0.44 3
02:00 44 J/kg -0.8 K 0 % 0 % 0 % 0 m²/s² 0 0 -0.05 95
03:00 0 J/kg -0.2 K 0 % 0 % 0 % 0 m²/s² 0 0 0.76 80
04:00 0 J/kg -0.1 K 0 % 0 % 0 % 0 m²/s² 0 0 1.1 3
05:00 0 J/kg -0.1 K 0 % 0 % 0 % 0 m²/s² 0 0 1.16 80
06:00 0 J/kg 0.0 K 0 % 0 % 0 % 0 m²/s² 0 0 1.32 95
07:00 0 J/kg 0.2 K 0 % 0 % 0 % 0 m²/s² 0 0 1.19 95
08:00 0 J/kg 0.5 K 0 % 0 % 0 % 0 m²/s² 0 0 1.49 95
09:00 0 J/kg 0.7 K 0 % 0 % 0 % 0 m²/s² 0 0 1.75 80
10:00 2 J/kg 0.0 K 0 % 0 % 0 % 0 m²/s² 0 0 0.99 80
11:00 27 J/kg -0.4 K 0 % 0 % 0 % 0 m²/s² 0 0 0.86 95
12:00 81 J/kg -0.7 K 0 % 0 % 0 % 0 m²/s² 0 0 0.62 80
13:00 122 J/kg -0.9 K 0 % 0 % 0 % 0 m²/s² 0 0 0.45 3
14:00 199 J/kg -1.1 K 0 % 0 % 0 % 0 m²/s² 0 0 0.55 3
15:00 424 J/kg -2.1 K 0 % 0 % 0 % 0 m²/s² 0 0 -0.12 3
16:00 751 J/kg -2.8 K 0 % 0 % 0 % 0 m²/s² 0 0 -1.27 3
17:00 930 J/kg -3.4 K 0 % 0 % 0 % 0 m²/s² 0 0 -2.26 3
18:00 254 J/kg -1.8 K 0 % 0 % 0 % 0 m²/s² 0 0 0.51 3
19:00 94 J/kg -0.4 K 0 % 0 % 0 % 0 m²/s² 0 0 0.8 3
20:00 80 J/kg 0.0 K 0 % 0 % 0 % 0 m²/s² 0 0 1.2 80
21:00 180 J/kg -1.2 K 0 % 0 % 0 % 0 m²/s² 0 0 0 3
22:00 136 J/kg -0.8 K 0 % 0 % 0 % 0 m²/s² 0 0 0.58 80
23:00 107 J/kg -0.9 K 0 % 0 % 0 % 0 m²/s² 0 0 -0.06 80
 07:22     19:30    Daglengte: 12:08 Dinsdag 22 Sep
00:00 1 J/kg -0.2 K 0 % 0 % 0 % 0 m²/s² 0 0 0.64 95
01:00 1 J/kg -0.1 K 0 % 0 % 0 % 0 m²/s² 0 0 0.71 95
02:00 3 J/kg -0.2 K 0 % 0 % 0 % 0 m²/s² 0 0 0.43 80
03:00 39 J/kg -0.9 K 0 % 0 % 0 % 0 m²/s² 0 0 -0.54 80
04:00 15 J/kg -1.1 K 0 % 0 % 0 % 0 m²/s² 0 0 -0.74 80
05:00 39 J/kg -0.8 K 0 % 0 % 0 % 0 m²/s² 0 0 -0.32 80
06:00 55 J/kg -0.6 K 0 % 0 % 0 % 0 m²/s² 0 0 0.06 95
07:00 99 J/kg -1.0 K 0 % 0 % 0 % 0 m²/s² 0 0 -0.52 95
08:00 110 J/kg -0.5 K 0 % 0 % 0 % 0 m²/s² 0 0 -0.29 80
09:00 203 J/kg -0.9 K 0 % 0 % 0 % 0 m²/s² 0 0 -0.87 80
10:00 280 J/kg -1.3 K 0 % 0 % 0 % 0 m²/s² 0 0 -1 80
11:00 396 J/kg -1.4 K 0 % 0 % 0 % 0 m²/s² 0 0 -0.83 3
12:00 591 J/kg -1.9 K 0 % 0 % 0 % 0 m²/s² 0 0 -1.6 80
13:00 690 J/kg -2.5 K 0 % 0 % 0 % 0 m²/s² 0 0 -1.99 3
14:00 793 J/kg -3.0 K 0 % 0 % 0 % 0 m²/s² 0 0 -2.01 3
15:00 855 J/kg -3.0 K 0 % 0 % 0 % 0 m²/s² 0 0 -1.86 3
16:00 1069 J/kg -4.0 K 0 % 0 % 0 % 0 m²/s² 0 0 -2.89 3
17:00 1282 J/kg -4.3 K 0 % 0 % 0 % 0 m²/s² 0 0 -3.49 3
18:00 1062 J/kg -3.5 K 0 % 0 % 0 % 0 m²/s² 0 0 -3.08 80
19:00 201 J/kg -0.5 K 0 % 0 % 0 % 0 m²/s² 0 0 -0.41 80
20:00 15 J/kg -0.6 K 0 % 0 % 0 % 0 m²/s² 0 0 -0.21 80
21:00 4 J/kg -0.9 K 0 % 0 % 0 % 0 m²/s² 0 0 -0.54 80
22:00 0 J/kg 0.9 K 0 % 0 % 0 % 0 m²/s² 0 0 1.23 80
23:00 5 J/kg -0.2 K 0 % 0 % 0 % 0 m²/s² 0 0 0.22 95
 07:24     19:28    Daglengte: 12:04 Woensdag 23 Sep
00:00 51 J/kg 0.2 K 0 % 0 % 0 % 0 m²/s² 0 0 0.29 81
01:00 156 J/kg -0.7 K 0 % 0 % 0 % 0 m²/s² 0 0 -0.49 81
02:00 89 J/kg -0.2 K 0 % 0 % 0 % 0 m²/s² 0 0 -0.11 95
03:00 79 J/kg 0.0 K 0 % 0 % 0 % 0 m²/s² 0 0 0.03 95
04:00 250 J/kg -0.9 K 0 % 0 % 0 % 0 m²/s² 0 0 -0.72 95
05:00 597 J/kg -1.9 K 0 % 0 % 0 % 0 m²/s² 0 0 -1.6 95
06:00 565 J/kg -1.9 K 0 % 0 % 0 % 0 m²/s² 0 0 -1.57 95
07:00 559 J/kg -1.6 K 0 % 0 % 0 % 0 m²/s² 0 0 -1.42 95
Temp Baro Wind Neerslag
  EWN Forecast EWN WRFDA DWD ICON FMI HIRLAM MET Norway GFS
 07:20     19:34    Daglengte: 12:14 Vandaag
08:00 18.2° 1014.1 hPa 1.8 m/s 0.0 mm 17.8° 1013.9 hPa 4.5 m/s 0.0 mm 19.5° 1012.9 hPa 1.9 m/s -2.0 mm 17.4° 1015.6 hPa 2.8 m/s 0.0 mm 17.9° 1014.0 hPa 1.4 m/s 16.2° 1016.0 hPa 0.8 m/s
11:00 20.1° 1014.5 hPa 1.4 m/s 0.0 mm 21.6° 1014.0 hPa 1.0 m/s 0.0 mm 20.9° 1013.9 hPa 1.2 m/s 0.0 mm 20.0° 1014.8 hPa 1.3 m/s 0.0 mm 19.7° 1014.6 hPa 1.7 m/s 20.0° 1015.4 hPa 1.1 m/s
14:00 21.0° 1013.9 hPa 1.1 m/s 0.0 mm 24.1° 1012.8 hPa 0.7 m/s 0.0 mm 22.4° 1013.0 hPa 1.9 m/s 0.0 mm 22.6° 1013.7 hPa 0.7 m/s 0.0 mm 19.2° 1014.5 hPa 1.0 m/s 21.3° 1014.1 hPa 1.2 m/s
17:00 21.5° 1013.1 hPa 1.6 m/s 0.0 mm 24.5° 1011.2 hPa 1.7 m/s 0.0 mm 21.8° 1012.9 hPa 2.3 m/s 0.8 mm 23.5° 1013.1 hPa 1.8 m/s 0.0 mm 20.7° 1013.4 hPa 1.4 m/s 21.9° 1013.5 hPa 1.3 m/s
20:00 20.6° 1014.0 hPa 1.3 m/s 2.4 mm 20.7° 1013.2 hPa 4.7 m/s 2.5 mm 19.5° 1014.2 hPa 1.0 m/s 3.3 mm 22.3° 1014.2 hPa 0.6 m/s 0.0 mm 20.2° 1013.9 hPa 0.9 m/s 19.5° 1014.8 hPa 1.0 m/s
23:00 19.2° 1014.9 hPa 1.9 m/s 2.9 mm 18.6° 1013.6 hPa 1.8 m/s 4.5 mm 19.0° 1014.8 hPa 0.8 m/s 3.9 mm 20.5° 1014.9 hPa 0.8 m/s 0.0 mm 18.3° 1015.4 hPa 2.2 m/s 18.2° 1015.7 hPa 0.7 m/s
 07:21     19:32    Daglengte: 12:11 Morgen
02:00 18.9° 1015.1 hPa 1.6 m/s 1.6 mm 17.7° 1013.3 hPa 3.4 m/s 4.8 mm 18.9° 1014.9 hPa 1.5 m/s 0.7 mm 19.4° 1015.4 hPa 2.2 m/s 0.0 mm 17.9° 1015.5 hPa 0.9 m/s 16.9° 1015.7 hPa 0.4 m/s
05:00 18.5° 1014.8 hPa 1.2 m/s 1.5 mm 17.2° 1013.6 hPa 2.9 m/s 4.8 mm 18.3° 1014.6 hPa 1.1 m/s 1.0 mm 18.9° 1015.1 hPa 1.7 m/s 0.0 mm 18.0° 1015.1 hPa 0.9 m/s 16.4° 1015.8 hPa 0.5 m/s
08:00 18.3° 1015.4 hPa 1.1 m/s 2.7 mm 18.3° 1013.9 hPa 0.7 m/s 4.8 mm 18.2° 1015.0 hPa 1.1 m/s 2.1 mm 18.4° 1015.8 hPa 1.6 m/s 0.0 mm 17.7° 1015.6 hPa 0.6 m/s 16.3° 1016.0 hPa 0.5 m/s
11:00 19.0° 1015.8 hPa 1.3 m/s 2.4 mm 20.3° 1013.8 hPa 2.0 m/s 4.8 mm 18.6° 1015.9 hPa 1.2 m/s 1.8 mm 19.4° 1015.3 hPa 2.1 m/s 0.0 mm 18.2° 1016.2 hPa 1.2 m/s 18.9° 1016.1 hPa 0.7 m/s
14:00 20.0° 1015.0 hPa 1.2 m/s 0.6 mm 22.4° 1013.1 hPa 2.5 m/s 4.8 mm 19.8° 1015.2 hPa 1.2 m/s 0.5 mm 21.7° 1014.1 hPa 1.0 m/s 0.0 mm 19.4° 1015.3 hPa 0.5 m/s 21.2° 1014.8 hPa 1.4 m/s
17:00 21.1° 1014.0 hPa 1.4 m/s 0.0 mm 22.8° 1012.7 hPa 1.3 m/s 5.2 mm 20.8° 1014.4 hPa 2.1 m/s 0.0 mm 22.3° 1013.4 hPa 1.2 m/s 0.0 mm 20.4° 1014.1 hPa 0.8 m/s 22.2° 1014.4 hPa 1.4 m/s
20:00 20.4° 1014.6 hPa 0.8 m/s 1.6 mm 19.6° 1013.0 hPa 2.7 m/s 7.7 mm 20.3° 1015.0 hPa 0.4 m/s 0.9 mm 20.7° 1014.3 hPa 1.6 m/s 0.0 mm 20.0° 1014.7 hPa 0.4 m/s 18.9° 1014.8 hPa 1.2 m/s
23:00 19.4° 1015.0 hPa 1.3 m/s 1.7 mm 18.7° 1013.3 hPa 3.3 m/s 8.2 mm 19.1° 1015.2 hPa 0.5 m/s 1.4 mm 19.1° 1015.2 hPa 1.6 m/s 0.0 mm 19.5° 1014.9 hPa 1.2 m/s 16.9° 1015.6 hPa 0.7 m/s
 07:22     19:30    Daglengte: 12:08 Dinsdag 22 Sep
02:00 18.3° 1014.6 hPa 1.3 m/s 3.1 mm 17.6° 1012.8 hPa 3.9 m/s 8.2 mm 18.5° 1015.0 hPa 0.8 m/s 2.5 mm 18.1° 1014.6 hPa 1.1 m/s 0.0 mm 17.9° 1014.7 hPa 1.8 m/s 16.0° 1015.0 hPa 0.7 m/s
05:00 17.6° 1014.1 hPa 2.0 m/s 2.4 mm 17.2° 1011.5 hPa 5.3 m/s 8.2 mm 18.2° 1014.3 hPa 0.9 m/s 1.6 mm 17.4° 1014.3 hPa 1.8 m/s 15.4° 1014.1 hPa 0.6 m/s
08:00 17.8° 1014.0 hPa 1.6 m/s 2.7 mm 17.1° 1012.1 hPa 4.8 m/s 8.2 mm 18.0° 1014.1 hPa 0.8 m/s 2.4 mm 17.7° 1014.0 hPa 1.2 m/s 15.4° 1014.3 hPa 0.4 m/s
11:00 18.6° 1013.7 hPa 1.7 m/s 0.0 mm 19.0° 1011.1 hPa 4.8 m/s 9.7 mm 18.6° 1014.0 hPa 1.3 m/s 1.6 mm 18.2° 1013.7 hPa 1.7 m/s 18.1° 1013.0 hPa 0.6 m/s
14:00 19.0° 1012.5 hPa 1.7 m/s 0.8 mm 21.4° 1009.5 hPa 5.2 m/s 10.0 mm 20.0° 1012.6 hPa 1.4 m/s 0.6 mm 18.7° 1012.5 hPa 1.5 m/s 20.8° 1011.6 hPa 1.6 m/s
17:00 19.8° 1011.1 hPa 2.1 m/s 0.0 mm 22.1° 1008.1 hPa 6.4 m/s 10.0 mm 20.8° 1011.1 hPa 1.9 m/s 0.1 mm 19.1° 1011.3 hPa 1.1 m/s 21.0° 1010.0 hPa 4.1 m/s
20:00 18.4° 1011.0 hPa 2.6 m/s 5.0 mm 17.1° 1009.1 hPa 6.3 m/s 19.9 mm 19.3° 1011.1 hPa 0.8 m/s 1.8 mm 18.0° 1011.1 hPa 2.3 m/s 17.4° 1010.5 hPa 2.4 m/s
23:00 18.2° 1011.0 hPa 2.3 m/s 15.7 mm 17.8° 1008.9 hPa 4.1 m/s 34.7 mm 18.6° 1011.2 hPa 0.9 m/s 6.2 mm 17.4° 1011.0 hPa 2.5 m/s 16.6° 1011.2 hPa 1.7 m/s
 07:24     19:28    Daglengte: 12:04 Woensdag 23 Sep
02:00 17.4° 1010.8 hPa 2.9 m/s 21.6 mm 16.5° 1008.7 hPa 6.6 m/s 43.1 mm 18.2° 1010.9 hPa 2.0 m/s 10.8 mm 16.9° 1010.9 hPa 2.8 m/s 16.3° 1010.7 hPa 5.8 m/s
05:00 16.8° 1010.1 hPa 3.2 m/s 26.4 mm 16.5° 1007.1 hPa 7.6 m/s 61.8 mm 17.5° 1010.4 hPa 2.7 m/s 8.6 mm 16.7° 1010.4 hPa 2.7 m/s 16.0° 1009.9 hPa 5.7 m/s
08:00 16.6° 1009.8 hPa 3.1 m/s 33.5 mm 16.6° 1008.1 hPa 8.0 m/s 80.4 mm 17.1° 1010.2 hPa 2.3 m/s 10.0 mm 16.5° 1009.9 hPa 2.6 m/s 15.7° 1010.5 hPa 4.4 m/s
11:00 17.0° 1009.4 hPa 2.1 m/s 28.5 mm 17.2° 1009.3 hPa 2.1 m/s 15.4° 1010.3 hPa 1.5 m/s 28.5 mm
14:00 17.6° 1009.0 hPa 1.9 m/s 28.7 mm 17.5° 1009.0 hPa 1.9 m/s 19.1° 1009.1 hPa 1.7 m/s 28.7 mm
17:00 18.2° 1008.0 hPa 1.6 m/s 28.9 mm 18.0° 1008.0 hPa 1.4 m/s 20.8° 1007.9 hPa 4.6 m/s 28.9 mm
20:00 18.5° 1007.2 hPa 1.1 m/s 29.0 mm 18.5° 1007.1 hPa 0.8 m/s 19.0° 1008.6 hPa 3.9 m/s 29.0 mm
23:00 17.7° 1007.6 hPa 2.2 m/s 29.8 mm 17.8° 1007.3 hPa 2.2 m/s 17.2° 1010.4 hPa 3.2 m/s 29.8 mm
 07:25     19:26    Daglengte: 12:01 Donderdag 24 Sep
02:00 17.0° 1007.8 hPa 3.5 m/s 31.3 mm 17.0° 1007.5 hPa 3.5 m/s 16.7° 1010.7 hPa 3.9 m/s 31.3 mm
05:00 15.9° 1008.8 hPa 5.1 m/s 34.0 mm 15.9° 1008.6 hPa 5.2 m/s 16.2° 1010.8 hPa 4.0 m/s 34.0 mm
08:00 14.9° 1009.8 hPa 6.8 m/s 37.0 mm 14.8° 1009.7 hPa 6.9 m/s 15.7° 1011.4 hPa 5.5 m/s 37.0 mm
11:00 15.1° 1009.7 hPa 5.6 m/s 40.9 mm 15.0° 1009.7 hPa 5.8 m/s 15.9° 1010.5 hPa 3.4 m/s 40.9 mm
14:00 15.4° 1009.6 hPa 4.5 m/s 42.1 mm 15.2° 1009.6 hPa 4.6 m/s 17.8° 1009.5 hPa 4.0 m/s 42.1 mm
17:00 15.7° 1008.2 hPa 4.9 m/s 44.9 mm 15.7° 1008.2 hPa 4.8 m/s 15.9° 1008.2 hPa 7.1 m/s 44.9 mm
20:00 16.1° 1007.0 hPa 5.0 m/s 52.5 mm 16.2° 1006.9 hPa 4.9 m/s 14.5° 1007.6 hPa 5.9 m/s 52.5 mm
23:00 14.8° 1007.4 hPa 5.8 m/s 53.9 mm 14.8° 1007.2 hPa 5.6 m/s 14.8° 1008.9 hPa 8.4 m/s 53.9 mm
 07:26     19:24    Daglengte: 11:58 Vrijdag 25 Sep
02:00 13.2° 1007.7 hPa 6.3 m/s 56.5 mm 13.3° 1007.6 hPa 6.2 m/s 11.9° 1009.2 hPa 7.2 m/s 56.5 mm
05:00 11.6° 1007.7 hPa 6.1 m/s 60.5 mm 11.8° 1007.6 hPa 6.1 m/s 10.1° 1008.5 hPa 6.1 m/s 60.5 mm
08:00 10.1° 1007.8 hPa 5.9 m/s 64.1 mm 10.2° 1007.6 hPa 5.9 m/s 8.5° 1009.7 hPa 6.1 m/s 64.1 mm
11:00 10.4° 1008.5 hPa 6.0 m/s 66.6 mm 10.6° 1008.4 hPa 5.9 m/s 8.0° 1010.2 hPa 6.6 m/s 66.6 mm
14:00 10.9° 1009.2 hPa 6.0 m/s 71.4 mm 11.1° 1009.1 hPa 5.9 m/s 8.4° 1010.3 hPa 6.8 m/s 71.4 mm
17:00 9.7° 1010.3 hPa 4.7 m/s 73.8 mm 9.6° 1010.2 hPa 4.5 m/s 10.3° 1010.7 hPa 7.6 m/s 73.7 mm
20:00 8.2° 1011.5 hPa 3.3 m/s 75.7 mm 8.2° 1011.4 hPa 3.0 m/s 8.7° 1012.0 hPa 6.9 m/s 75.7 mm
23:00 8.1° 1011.9 hPa 3.4 m/s 77.6 mm 8.1° 1011.8 hPa 3.1 m/s 8.6° 1012.5 hPa 7.3 m/s 77.6 mm
 07:28     19:22    Daglengte: 11:54 Zaterdag 26 Sep
02:00 7.9° 1012.1 hPa 3.5 m/s 79.9 mm 7.9° 1012.3 hPa 3.2 m/s 8.3° 1009.9 hPa 6.3 m/s 79.9 mm
05:00 7.5° 1012.1 hPa 3.0 m/s 83.6 mm 7.5° 1012.6 hPa 2.9 m/s 8.0° 1006.8 hPa 4.1 m/s 83.6 mm
08:00 7.2° 1012.2 hPa 2.7 m/s 87.6 mm 7.0° 1012.9 hPa 2.6 m/s 8.8° 1004.5 hPa 3.5 m/s 87.6 mm
11:00 8.2° 1011.8 hPa 3.4 m/s 91.5 mm 8.1° 1012.6 hPa 3.1 m/s 10.3° 1002.4 hPa 6.4 m/s 91.5 mm
14:00 9.2° 1011.3 hPa 3.5 m/s 97.3 mm 9.1° 1012.3 hPa 3.6 m/s 9.8° 1000.8 hPa 2.6 m/s 97.3 mm
17:00 9.0° 1012.4 hPa 2.9 m/s 102.4 mm 9.1° 1013.4 hPa 2.9 m/s 8.4° 1001.0 hPa 2.5 m/s 102.4 mm
20:00 9.0° 1013.6 hPa 2.2 m/s 105.3 mm 9.1° 1014.5 hPa 2.2 m/s 7.9° 1004.0 hPa 2.6 m/s 105.3 mm
23:00 9.0° 1014.6 hPa 2.4 m/s 107.1 mm 9.1° 1015.4 hPa 2.2 m/s 7.3° 1006.3 hPa 3.9 m/s 107.1 mm
 07:29     19:20    Daglengte: 11:51 Zondag 27 Sep
02:00 8.9° 1015.4 hPa 2.6 m/s 109.9 mm 9.1° 1016.2 hPa 2.3 m/s 7.3° 1006.6 hPa 5.4 m/s 109.9 mm
05:00 8.6° 1016.1 hPa 2.8 m/s 115.5 mm 8.8° 1016.9 hPa 2.6 m/s 6.9° 1006.8 hPa 5.6 m/s 115.5 mm
08:00 8.4° 1016.8 hPa 3.2 m/s 119.9 mm 8.5° 1017.6 hPa 2.9 m/s 7.0° 1008.1 hPa 6.3 m/s 119.9 mm
14:00 11.1° 1017.3 hPa 1.8 m/s 127.5 mm 11.4° 1018.0 hPa 1.5 m/s 7.9° 1009.9 hPa 5.0 m/s 127.5 mm
20:00 12.9° 1016.6 hPa 0.6 m/s 130.9 mm 13.5° 1016.9 hPa 0.3 m/s 6.4° 1013.6 hPa 3.7 m/s 130.9 mm
 07:30     19:18    Daglengte: 11:48 Maandag 28 Sep
02:00 11.9° 1017.4 hPa 3.5 m/s 132.4 mm 12.5° 1017.6 hPa 3.4 m/s 5.7° 1015.0 hPa 4.3 m/s 132.4 mm
08:00 12.2° 1018.0 hPa 2.4 m/s 133.1 mm 12.8° 1018.2 hPa 2.1 m/s 5.4° 1016.0 hPa 5.5 m/s 133.1 mm
14:00 14.3° 1018.0 hPa 4.6 m/s 133.3 mm 14.7° 1018.1 hPa 4.4 m/s 9.5° 1016.5 hPa 6.8 m/s 133.3 mm
20:00 15.5° 1017.7 hPa 3.3 m/s 133.8 mm 16.2° 1017.4 hPa 3.3 m/s 7.6° 1020.8 hPa 3.1 m/s 133.8 mm
 07:32     19:16    Daglengte: 11:44 Dinsdag 29 Sep
02:00 13.3° 1019.2 hPa 2.4 m/s 134.1 mm 13.9° 1018.8 hPa 2.5 m/s 6.7° 1023.4 hPa 1.7 m/s 134.1 mm
08:00 13.2° 1019.5 hPa 3.0 m/s 134.2 mm 13.7° 1019.1 hPa 3.1 m/s 7.3° 1024.3 hPa 1.8 m/s 134.2 mm
14:00 12.0° 1022.9 hPa 3.5 m/s 135.2 mm 12.0° 1022.9 hPa 3.5 m/s 135.2 mm
20:00 9.9° 1023.1 hPa 1.2 m/s 138.0 mm 9.9° 1023.1 hPa 1.2 m/s 138.0 mm
 07:33     19:14    Daglengte: 11:41 Woensdag 30 Sep
02:00 6.3° 1023.1 hPa 1.4 m/s 0.5 mm
08:00 5.9° 1022.5 hPa 1.4 m/s 0.4 mm
14:00 15.0° 1020.1 hPa 1.5 m/s 0.4 mm
20:00 9.6° 1020.5 hPa 1.2 m/s 0.7 mm
 07:34     19:12    Daglengte: 11:38 Donderdag 01 Okt
02:00 7.2° 1020.6 hPa 1.3 m/s 0.6 mm
08:00 6.6° 1020.0 hPa 1.1 m/s 0.6 mm
14:00 15.5° 1018.0 hPa 1.6 m/s 0.8 mm
20:00 8.8° 1019.0 hPa 1.7 m/s 0.7 mm
 07:36     19:10    Daglengte: 11:34 Vrijdag 02 Okt
02:00 6.6° 1019.7 hPa 1.5 m/s 0.0 mm
08:00 6.3° 1019.3 hPa 1.8 m/s 0.0 mm
14:00 16.9° 1017.1 hPa 1.2 m/s 0.0 mm
20:00 10.3° 1017.9 hPa 0.9 m/s 0.2 mm
 07:37     19:08    Daglengte: 11:31 Zaterdag 03 Okt
02:00 8.6° 1018.7 hPa 1.7 m/s 0.2 mm
08:00 8.3° 1018.6 hPa 1.4 m/s 0.3 mm
14:00 18.2° 1017.1 hPa 0.9 m/s 0.1 mm
20:00 11.5° 1017.8 hPa 0.7 m/s 0.2 mm
 07:38     19:06    Daglengte: 11:28 Zondag 04 Okt
02:00 10.0° 1018.6 hPa 1.8 m/s 0.8 mm
08:00 9.1° 1018.6 hPa 1.5 m/s 0.9 mm
14:00 18.4° 1017.4 hPa 1.1 m/s 0.7 mm
20:00 11.7° 1017.6 hPa 0.4 m/s 0.6 mm
 07:40     19:04    Daglengte: 11:24 Maandag 05 Okt
02:00 9.9° 1018.4 hPa 1.6 m/s 0.4 mm
FMI Hirlam - 7.5 km EWN WRFDA - 12 km DWD ICON - 7 km GFS - 25 km Basiskaart






























































Updatetijd (Europe/Amsterdam) Resolutie Lengte Stap
FMI Hirlam 01:45, 07:45, 13:45, 19:45 7.5 km 49h 1h
EWN WRFDA 03:45, 09:45, 15:45, 21:45 12 km 73h 1h
DWD ICON 06:15, 12:15, 18:15, 00:15 7 km 75h 1h
GFS 01:45, 07:45, 13:45, 19:45 25 km 237h 3h
30+ mm
25-30 mm
20-25 mm
15-20 mm
10-15 mm
6-10 mm
4-6 mm
2-4 mm
1-2 mm
0.5-1 mm
0.2-0.5 mm
0.1-0.2 mm
30+ mm
25-30 mm
20-25 mm
15-20 mm
10-15 mm
6-10 mm
4-6 mm
2-4 mm
1-2 mm
0.5-1 mm
0.2-0.5 mm
0.1-0.2 mm
Sneeuwval
Natte sneeuw
Hagel
Vorst
30+ mm
25-30 mm
20-25 mm
15-20 mm
10-15 mm
6-10 mm
4-6 mm
2-4 mm
1-2 mm
0.5-1 mm
0.2-0.5 mm
0.1-0.2 mm
Sneeuwval
Natte sneeuw
Hagel
Vorst
Onweer
50 mm
40 mm
30 mm
26 mm
22 mm
18 mm
14 mm
10 mm
9 mm
8 mm
7 mm
6 mm
5 mm
4.5 mm
4 mm
3.5 mm
3 mm
2.5 mm
2 mm
1.5 mm
1 mm
0.8 mm
0.6 mm
0.4 mm
0.2 mm
0.05 mm
35°
30°
25°
20°
15°
10°
-5°
-10°
-15°
-20°
-25°
-30°
-35°